Dewpoint
55 55 54 54 53 53 52 51 50 49 50 49 49 47 47 47 47 44 37 39 37 33 33 32 32 26 25 30 28 29 37 38 41 40 34 32 33 36 37 40 39 36 38 33 32 28 28 52 51 46 50 52 54 55
54 55 54 53 53 53 52 51 51 50 51 50 49 47 47 47 47 45 38 39 42 37 32 32 33 32 28 24 29 34 35 38 43 39 42 41 41 43 41 39 42 41 43 41 45 43 50 53 51 53 52 52 56 54
54 54 54 53 53 52 52 52 51 50 51 50 49 48 47 47 47 44 37 38 42 39 38 36 29 23 30 25 28 28 38 39 41 41 41 42 40 43 38 39 40 46 48 44 44 48 50 53 53 53 54 53 56 58
54 54 53 53 53 52 52 52 51 51 51 50 50 48 48 48 48 45 35 36 42 40 37 34 38 33 33 30 34 35 37 39 40 43 39 37 38 45 42 39 41 43 44 45 45 45 46 52 52 52 53 55 56 57
53 54 53 53 53 52 52 52 51 51 51 50 50 48 48 48 48 44 40 38 42 39 36 36 38 35 32 32 32 35 36 37 37 34 39 34 39 40 41 44 43 46 42 39 40 46 48 49 53 53 55 55 55 54
53 53 53 53 52 52 52 51 51 51 51 51 50 49 49 48 46 39 41 42 38 43 36 33 37 35 30 32 31 38 35 40 39 34 32 36 42 38 35 41 46 49 51 48 46 51 52 53 53 55 55 54 54 56
52 53 53 53 52 52 52 51 51 51 51 50 50 49 49 48 41 33 39 42 44 42 38 36 32 34 33 33 34 32 35 35 32 32 33 37 39 38 36 33 44 50 49 50 52 51 49 52 50 54 56 56 56 56
52 53 53 52 52 52 52 51 51 50 50 50 49 49 48 48 44 33 35 44 40 42 43 34 30 32 38 31 29 35 32 35 34 31 31 37 39 38 32 36 45 48 50 51 53 54 50 51 52 53 56 58 57 57
50 52 52 52 52 52 51 51 51 50 50 49 49 48 41 39 33 38 49 44 45 43 39 36 27 32 35 32 36 36 35 31 35 30 28 35 37 31 32 37 43 46 48 46 47 51 51 53 52 53 56 55 54 55
51 52 52 52 52 52 51 51 50 49 49 48 39 38 33 39 47 48 35 36 38 41 41 35 35 31 34 36 39 39 40 37 33 33 34 28 32 42 45 45 39 44 46 37 44 46 50 51 53 53 53 54 54 54
50 52 52 52 52 51 51 50 49 48 45 36 34 36 41 50 39 39 37 34 34 31 37 36 30 27 30 38 37 40 37 36 28 32 33 35 39 44 47 48 44 41 48 50 50 50 51 51 53 54 54 54 54 54
48 52 52 51 51 51 50 49 48 41 37 37 40 41 42 39 39 36 35 35 32 29 32 28 27 26 30 43 36 39 36 37 30 41 35 37 42 44 46 49 48 46 47 48 49 52 53 54 52 52 54 55 55 55
47 50 51 51 51 51 50 49 47 45 43 44 39 40 35 35 30 32 29 32 30 34 34 31 26 36 30 39 40 38 34 33 39 38 36 39 42 44 48 48 50 50 49 49 50 50 50 50 51 52 52 54 53 53
47 49 51 50 51 50 49 48 47 43 41 40 39 32 32 32 33 32 33 31 33 34 33 32 30 28 34 31 35 31 35 38 35 31 35 39 41 44 45 48 50 50 51 50 49 50 51 51 52 52 52 52 51 50
48 50 50 51 50 50 49 48 45 41 40 40 40 30 32 34 33 31 32 31 34 35 36 35 36 32 35 36 38 34 32 34 36 35 39 43 44 43 47 50 51 52 51 50 50 50 51 52 51 52 52 52 51 51
50 50 49 50 49 48 47 44 42 42 42 41 40 36 33 30 31 30 32 32 36 38 39 38 35 34 36 36 35 33 33 34 35 41 43 44 45 46 51 52 53 52 50 48 48 48 50 51 50 51 51 50 50 49
48 47 49 49 47 46 45 39 41 38 40 39 36 36 32 32 37 39 37 39 41 39 37 37 33 33 37 35 36 40 36 38 42 44 45 45 45 46 49 50 49 49 48 48 48 49 50 50 51 50 49 48 48 48
46 49 49 47 46 44 41 42 41 39 37 37 32 38 39 42 39 40 41 43 40 40 40 38 40 37 36 36 36 39 41 41 43 44 44 45 46 49 49 47 48 49 49 49 50 50 50 49 49 49 48 48 48 47
47 47 47 47 45 43 41 39 40 37 35 36 39 38 39 41 41 41 41 42 43 43 42 41 38 37 37 39 40 41 42 42 43 44 46 45 47 48 48 48 49 48 47 47 47 48 48 48 48 49 49 49 47 46
48 48 48 47 46 43 39 39 42 38 36 33 36 37 38 39 42 42 43 42 39 39 38 38 39 40 40 41 43 43 45 46 45 44 45 46 47 48 48 48 47 48 48 48 49 46 49 50 49 49 49 48 47 46
45 46 46 46 44 42 40 37 35 37 37 37 40 40 40 42 42 41 40 42 37 39 40 42 43 43 43 44 45 46 46 46 45 45 44 44 45 48 47 48 47 47 51 50 48 48 48 50 52 49 48 47 48 48
45 46 45 44 40 42 41 41 39 40 39 39 38 40 38 37 38 39 42 40 42 43 43 43 44 44 44 45 47 46 46 45 45 45 43 45 46 45 45 46 46 46 49 47 50 50 51 52 52 51 49 49 48 47
46 44 43 44 41 38 35 41 38 40 37 37 38 37 38 38 40 42 39 40 42 44 45 45 44 45 46 47 47 46 46 46 46 45 46 45 46 46 46 47 47 50 50 50 51 52 50 47 48 44 45 46 46 47
45 43 41 40 38 36 40 39 41 41 39 38 37 35 36 39 42 38 36 39 43 44 45 45 46 46 46 46 46 46 47 47 46 46 46 45 45 47 50 48 50 52 51 49 48 46 45 44 42 45 46 47 45 44
35 32 36 29 37 37 36 36 36 36 35 37 36 35 36 40 35 33 34 40 43 44 45 45 45 45 45 44 45 46 46 46 46 46 47 48 47 50 50 48 49 49 50 48 48 46 43 45 45 43 42 39 40 44
26 33 30 35 34 34 34 33 34 35 36 35 36 38 39 36 32 28 39 42 43 44 45 45 44 44 44 44 44 45 47 48 47 49 50 51 49 47 46 46 46 46 48 50 48 46 44 43 42 42 42 39 36 41
33 35 37 38 38 36 34 35 37 35 34 33 36 34 32 29 32 41 43 44 45 46 47 47 47 46 45 45 47 48 50 49 49 49 50 50 50 50 49 47 45 45 43 46 47 46 44 42 42 42 41 41 41 41
37 39 35 37 34 36 33 33 34 36 37 38 35 35 35 36 38 43 45 46 46 46 46 47 47 48 48 48 49 49 50 50 48 49 49 48 49 50 49 49 49 44 45 42 42 44 43 44 43 43 42 42 42 42
36 37 36 35 36 42 41 39 40 41 42 40 38 37 39 43 44 44 45 46 46 46 46 46 47 48 49 49 50 50 48 47 46 46 46 46 47 46 47 47 46 45 41 40 37 40 42 43 43 43 43 40 40 43
37 39 37 37 38 39 41 42 42 44 43 43 43 42 42 43 45 46 46 46 45 45 47 48 47 46 46 45 45 45 46 46 47 47 46 46 46 46 46 46 45 45 44 42 40 37 36 36 36 37 36 37 42 44
41 40 37 38 39 42 43 44 44 45 44 44 44 42 42 44 46 47 48 48 49 48 47 46 46 47 48 47 47 47 46 47 47 48 47 47 47 46 46 46 46 45 45 44 41 39 38 38 38 39 40 43 44 45
41 39 39 37 39 43 44 43 43 44 45 43 42 44 44 44 44 46 48 49 47 46 46 47 46 46 48 50 52 52 46 50 50 50 47 43 41 41 41 42 44 45 45 44 43 44 46 44 43 43 43 43 43 44
39 39 40 41 40 40 43 44 43 43 44 44 44 44 44 45 41 43 48 49 49 49 48 48 49 50 51 51 50 50 47 50 48 41 37 36 36 37 38 39 41 44 44 44 45 44 42 42 41 42 42 43 42 41
Lifted_Index
5 4 4 4 4 5 5 6 6 7 8 10 11 11 11 12 13 12 9 7 7 7 7 6 5 5 5 4 3 2 1 1 1 1 1 1 1 0 -0 -0 -0 -0 -0 0 1 1 0 -1 -2 -1 -1 -2 -1 -1
5 4 4 3 4 5 5 6 6 7 8 10 11 11 11 12 13 12 9 7 7 7 7 7 6 6 6 5 5 3 2 1 1 1 1 1 1 0 -0 -1 -1 -1 -0 -0 0 0 -0 -1 -1 -1 -1 -1 -1 -1
5 4 3 3 4 5 5 6 7 7 8 10 10 11 11 12 13 12 9 7 7 7 7 6 6 6 7 6 6 4 3 2 2 1 1 1 1 0 -0 -1 -0 -0 -0 -0 -0 0 0 0 0 0 -0 -1 -1 -1
5 4 3 3 3 4 5 6 7 7 8 10 10 11 11 12 13 12 10 8 7 6 6 5 5 5 5 6 5 5 4 3 3 2 2 1 1 0 -0 -0 -0 0 1 1 1 1 1 1 1 1 1 0 -0 -0
5 4 3 3 3 4 5 6 7 7 8 9 10 11 11 12 13 12 10 8 7 6 5 4 4 4 4 5 5 5 5 4 4 3 2 1 1 0 0 -0 -0 0 1 1 1 1 1 1 1 1 1 1 1 1
5 4 3 3 3 4 5 6 7 7 9 9 10 11 11 12 13 12 9 8 7 6 4 3 3 4 4 4 4 5 5 4 4 3 3 2 1 1 1 0 -0 -0 0 1 1 1 1 1 1 1 1 1 1 1
4 4 3 2 2 4 5 6 7 8 9 9 10 11 11 12 12 10 8 7 7 6 4 3 3 3 3 4 4 4 4 4 4 4 3 2 1 1 1 1 0 0 0 0 1 1 1 1 1 1 0 1 1 2
4 3 2 1 2 4 5 6 7 8 9 9 10 11 12 13 12 10 8 7 7 7 5 3 3 2 3 3 3 4 4 3 3 3 3 3 2 2 2 1 1 1 1 1 1 1 1 1 0 1 0 0 1 1
3 2 1 1 2 3 5 6 7 8 9 10 10 11 12 12 10 8 7 8 7 6 5 3 2 2 2 2 3 3 3 3 2 3 3 3 2 2 2 2 3 2 2 2 2 1 1 0 0 0 -0 -0 0 0
3 3 2 2 2 3 4 6 7 9 9 10 11 10 10 9 7 6 7 7 7 6 6 4 3 1 1 1 2 2 2 2 2 2 2 2 2 2 2 3 3 3 2 2 2 1 0 -0 -0 -0 -0 -0 -0 -0
3 3 3 3 3 4 5 6 8 9 10 10 9 8 7 7 6 6 6 6 7 6 6 5 3 2 1 1 1 1 1 2 2 2 1 1 1 1 1 2 2 2 2 1 1 0 -0 -1 -1 -1 -1 -1 -1 -0
3 3 3 3 4 4 5 7 8 9 10 9 7 6 6 6 5 5 5 5 6 6 5 5 4 2 1 0 0 1 1 2 1 1 1 1 0 0 0 1 1 1 1 0 0 -0 -1 -1 -1 -1 -1 -1 -1 -0
2 2 2 2 3 4 6 7 9 9 9 7 6 5 6 5 5 4 4 4 4 4 5 5 4 2 1 1 1 1 1 1 1 1 1 1 1 0 0 0 0 0 0 0 0 -0 -1 -1 -1 -1 -1 -1 -0 -0
2 1 1 2 3 4 6 7 9 9 7 5 5 5 5 5 4 4 4 4 4 4 4 4 4 3 2 1 1 1 1 1 1 1 1 1 1 1 1 1 0 0 1 1 1 0 0 -0 -1 -1 -1 -0 0 0
1 1 0 2 3 5 6 8 9 8 5 4 4 4 5 4 4 4 4 4 4 4 4 4 3 2 2 1 1 1 1 1 1 1 1 1 1 1 1 1 1 1 1 1 1 1 1 -0 -0 -0 0 0 1 1
1 1 1 2 4 6 7 8 8 6 4 3 3 4 4 3 3 3 3 3 3 3 3 2 2 2 1 1 1 1 1 1 1 1 1 1 1 1 1 1 1 1 1 1 1 1 1 0 -0 0 0 1 1 1
2 2 3 4 5 7 8 7 6 4 3 3 3 2 2 2 2 2 2 2 2 2 2 2 1 1 1 1 1 1 1 1 1 1 1 1 1 1 1 1 1 1 1 1 1 1 0 -0 -0 -0 0 1 1 1
3 4 4 5 6 7 7 6 5 3 3 2 2 1 1 1 1 1 1 2 2 1 1 1 1 1 1 1 1 1 1 1 1 1 1 1 0 0 1 1 1 1 1 1 1 0 0 -0 -0 0 0 1 1 2
4 5 5 5 5 6 5 5 4 3 2 2 1 0 0 0 1 1 1 1 1 1 1 1 1 1 1 1 2 1 1 1 1 0 0 0 -0 -0 0 1 1 1 1 1 0 0 -0 -0 0 0 1 1 2 3
5 6 6 5 5 4 4 4 3 2 2 1 1 0 1 1 1 1 1 1 1 1 1 1 1 1 1 1 1 1 1 0 0 0 0 -0 -0 -0 0 1 1 1 1 1 0 0 0 0 0 1 1 2 2 3
6 6 6 5 4 4 3 2 2 2 1 1 1 1 1 1 1 1 1 1 1 1 1 1 1 1 1 1 1 0 0 0 0 0 0 0 0 -0 0 1 1 1 1 1 0 0 1 1 1 1 2 2 3 3
6 6 5 4 3 3 2 2 2 1 1 1 1 1 1 2 2 2 1 1 1 1 1 1 1 1 1 0 0 0 0 1 1 1 1 1 1 0 1 1 1 1 1 1 1 1 1 1 1 2 2 2 3 3
5 5 4 3 3 2 2 2 1 1 1 1 1 2 1 2 2 2 1 1 1 0 0 0 0 0 0 -0 0 0 1 1 1 1 1 1 1 1 1 2 2 1 1 2 2 1 1 2 2 2 2 3 3 3
4 4 3 3 2 2 2 2 2 1 1 1 2 2 2 1 2 2 1 1 0 0 0 -0 -0 -0 -0 -0 -0 0 0 1 1 1 1 1 2 2 2 2 2 2 2 2 2 2 2 3 3 3 3 3 3 3
3 3 3 2 2 2 2 2 2 2 2 2 2 2 2 2 2 2 1 0 0 0 0 0 0 0 0 0 -0 -0 0 1 1 1 1 2 2 2 2 2 2 2 2 2 3 3 3 3 4 4 4 4 4 4
3 3 2 2 2 2 2 2 2 2 2 2 2 2 2 2 2 1 0 0 0 0 1 1 1 1 1 0 0 0 1 1 1 1 1 2 2 3 2 2 2 2 3 3 3 3 4 4 4 4 4 4 4 4
3 3 3 2 2 2 3 3 2 2 2 2 2 2 2 2 1 1 0 0 0 1 1 1 1 1 1 1 1 1 1 1 1 1 1 2 2 3 3 2 3 3 3 3 4 4 4 4 4 4 4 4 4 4
3 3 3 3 3 3 3 3 3 2 2 2 2 2 1 1 1 1 0 1 1 1 1 1 1 1 1 1 1 1 2 2 2 2 2 2 2 2 2 2 3 3 3 4 4 4 4 4 4 4 4 4 4 4
3 3 3 3 3 2 2 2 2 2 2 2 1 1 1 1 1 1 1 1 1 1 1 1 1 1 1 1 1 2 2 2 2 2 2 2 2 2 2 2 3 3 3 3 4 4 4 4 4 4 4 4 4 3
3 3 3 3 2 2 2 2 2 2 2 2 2 2 2 2 1 1 1 2 2 2 2 2 2 2 2 2 2 2 2 2 2 2 2 2 2 2 2 2 2 2 3 3 3 4 4 4 3 3 3 3 3 3
3 3 3 3 3 2 2 2 2 2 2 2 2 2 2 2 2 2 2 2 2 2 2 2 2 2 2 2 2 2 2 2 1 1 1 2 2 2 2 2 2 2 2 2 2 3 3 3 3 2 2 2 2 2
4 4 3 3 3 2 2 2 2 2 2 2 2 2 2 2 2 2 2 2 2 2 2 2 2 1 1 1 1 1 1 1 1 1 1 2 2 2 2 2 2 2 2 2 2 2 2 2 2 2 1 1 1 1
4 4 4 3 3 2 2 2 2 2 1 1 2 2 1 1 2 2 2 2 2 2 2 1 1 1 1 1 1 0 0 0 0 1 1 2 2 2 3 3 3 2 2 2 2 1 1 1 1 1 1 1 1 1